Other Public Products
Issued by NWS Grand Forks, ND

Home | Current Version | Previous Version | Graphics & Text | Print | Product List | Glossary On
Versions: 1 2 3 4 5 6 7 8 9 10 11 12 13 14 15 16 17 18 19 20 21 22 23 24 25 26 27 28 29 30 31 32 33 34 35 36 37 38 39 40 41 42 43 44 45 46 47 48 49 50
734
FPUS83 KFGF 272210
OPUFGF
PRAIRIE TO PINES WEATHER ROUNDUP
NATIONAL WEATHER SERVICE EASTERN NORTH DAKOTA/GRAND FORKS ND
500 PM CDT WED JUL 27 2016

 **SATELLITE DATA USED TO AUGMENT SKY COVER AT AUTOMATED STATIONS**
 *****  WEATHER ACROSS EASTERN NORTH DAKOTA  *****

CITY           SKY/WX    TMP DP  RH WIND       PRES   REMARKS
GRAND FORKS    MOSUNNY   77  58  51 N15       30.04F
GRAND FORKS AF SUNNY     77  57  51 N15       30.06F
GRAND CITY NWS   N/A     77 N/A N/A N14         N/A
BUXTON           N/A     78  61  54 N13G24      N/A
DEVILS LAKE    MOSUNNY   71  56  58 N12       30.12S
FARGO          SUNNY     78  58  49 N15       30.02F
WAHPETON ARPT  CLEAR     77  55  47 N10G18    30.02S
$$

 *****  WEATHER ACROSS CENTRAL AND WESTERN NORTH DAKOTA  *****

CITY           SKY/WX    TMP DP  RH WIND       PRES   REMARKS
JAMESTOWN      MOSUNNY   75  59  57 N9        30.08S
BISMARCK       CLOUDY    78  60  53 E8        30.09F
MINOT          CLOUDY    76  57  51 E9        30.13R
MINOT AFB      CLOUDY    73  57  56 E9        30.12S
GARRISON         N/A     74  61  63 E10       30.11F
WILLISTON      CLOUDY    68  60  75 NE14      30.15S
DICKINSON      PTSUNNY   72  59  63 CALM      30.10F
HETTINGER      PTSUNNY   69  64  84 E9        30.12F
$$

 *****  OTHER OBSERVATIONS NORTHEAST NORTH DAKOTA  *****

CITY           SKY/WX    TMP DP  RH WIND       PRES   REMARKS
WALHALLA       NOT AVBL
LANGDON        MOCLDY    72  57  60 N10       30.13F
CAVALIER       FAIR      75  55  50 N10       30.09F
GRAFTON        FAIR      75  57  53 N10G17    30.08F
CANDO          NOT AVBL
FORT TOTTEN      N/A     75  58  55 N5        29.95
ROLLA          FAIR      70  54  56 N12       30.16S
RUGBY          NOT AVBL
 ***** THE ABOVE OBSERVATIONS ARE NON NWS ARE NOT QUALITY
        CONTROLLED AND MAY MIS-REPORT RAIN FOR SNOW...
$$

 *****  OTHER OBSERVATIONS SOUTHEAST NORTH DAKOTA *****

CITY           SKY/WX    TMP DP  RH WIND       PRES   REMARKS
COOPERSTOWN    NOT AVBL
VALLEY CITY    FAIR      75  59  57 N14G23    30.09S
OAKES            N/A    N/A N/A N/A MISG        N/A
GWINNER        FAIR      79  57  47 N14G21    30.05S
SHEYENNE NWR     N/A     79  55  43 N10       29.95
BUFFALO          N/A     75  49  38 N14         N/A
WYNDMERE       NOT AVBL
 ***** THE ABOVE OBSERVATIONS ARE NON NWS ARE NOT QUALITY
       CONTROLLED AND MAY MIS-REPORT RAIN FOR SNOW...
$$

  *****  WEATHER ACROSS NORTHERN MINNESOTA  *****

CITY           SKY/WX    TMP DP  RH WIND       PRES   REMARKS
FLAG ISLAND    SUNNY     72  55  56 NE13      30.08R
WARROAD        SUNNY     75  63  64 NE12      30.07S
ROSEAU         SUNNY     77  63  61 NE7       30.05F
HALLOCK        SUNNY     75  59  57 N16       30.06F
THF RVR FALLS  PTSUNNY   77  60  55 N13       30.04F
HALSTAD          N/A     79  59  50 N15         N/A
FOSSTON        PTSUNNY   73  63  68 N6        30.03S
BAUDETTE       MOSUNNY   77  57  50 N12       30.05R
WASKISH        CLOUDY    73  63  68 CALM      30.04R
CROOKSTON      SUNNY     77  59  53 N13       30.03F
$$
  *****  WEATHER ACROSS CENTRAL AND WEST MINNESOTA  *****

CITY           SKY/WX    TMP DP  RH WIND       PRES   REMARKS
BEMIDJI        CLOUDY    70  63  78 NE6       30.05R
PARK RAPIDS    CLOUDY    75  61  61 NE9       30.02S
WADENA         MOSUNNY   75  64  69 N9        30.01S
DETROIT LAKES  SUNNY     75  59  57 N13       30.04S
MOORHEAD       SUNNY     75  57  53 N15       30.03S
FERGUS FALLS   SUNNY     77  59  53 N15G22    30.03R
ELBOW LAKE     FAIR      77  60  55 NW13G18   30.01S
MORRIS MN      MOSUNNY   81  63  54 N14       30.00S
STAPLES        PTSUNNY   75  63  64 N6        30.01S
WHEATON        NOT AVBL
$$
  *****  WEATHER ELSEWHERE ACROSS MINNESOTA  *****

CITY           SKY/WX    TMP DP  RH WIND       PRES   REMARKS
DULUTH         CLOUDY    63  58  83 E10       30.04S
INTRNTL FALLS  SUNNY     77  56  48 NE12      30.04S
ELY            CLOUDY    72  57  60 E6        30.04S
CLOQUET        CLOUDY    63  55  77 E15       30.03R
BRAINERD       PTSUNNY   69  65  86 NE10      30.02R
HIBBING        PTSUNNY   70  61  73 NE6       30.04R
ALEXANDRIA     PTSUNNY   76  61  59 N15       30.03R
SAINT CLOUD    MOSUNNY   77  66  68 NW15      29.96S
MINNEAPOLIS    CLOUDY    75  68  78 N10       29.94R
$$

  *****  WEATHER ACROSS SOUTH DAKOTA  *****

CITY           SKY/WX    TMP DP  RH WIND       PRES   REMARKS
SIOUX FALLS    MOSUNNY   82  66  58 N9        30.00R
BROOKINGS      MOSUNNY   78  65  63 NE15      30.01F
WATERTOWN      MOSUNNY   79  61  53 NE15G23   30.03S
HURON          MOSUNNY   83  63  50 N14G21    29.99F
SISSETON         N/A     79  58  48 N10       30.02S
ABERDEEN       SUNNY     80  59  48 NE12      30.03F
MITCHELL       MOSUNNY   83  63  50 NE13      29.99S
PIERRE         MOSUNNY   87  58  37 NE10G21   30.02R
MOBRIDGE       PTSUNNY   81  59  47 VRB5      30.06R
RAPID CITY     MOSUNNY   80  61  52 NE16      30.13F
$$

  *****  SOME WEATHER IN NEARBY STATES *****

CITY           SKY/WX    TMP DP  RH WIND       PRES   REMARKS
GLASGOW MT     PTSUNNY   75  60  59 E7        30.12S
GREAT FALLS MT MOSUNNY   84  46  26 E7        30.15F
CHEYENNE WY    LGT RAIN  74  55  51 E9        30.22F
SCOTTSBLUFF NE SUNNY     90  53  28 E7        30.09F
OMAHA NE       CLOUDY    86  69  56 NE6       29.95F HX  90
DES MOINES IA  CLOUDY    84  69  60 NW5       29.94F
DAVENPORT IA   CLOUDY    84  67  56 SW7       29.94F
CHICAGO IL     PTSUNNY   88  62  41 SW9       29.93S
EAU CLAIRE WI  CLOUDY    80  68  66 SW7       29.91S
LA CROSSE WI   MOSUNNY   85  67  54 SW9       29.91F
$$

  *****  SOME NATIONAL WEATHER *****

CITY           SKY/WX    TMP DP  RH WIND       PRES   REMARKS
LA GUARDIA NY  MOSUNNY   90  65  43 SE13      29.87F HX  92
RALEIGH NC     CLOUDY    90  78  68 CALM      29.93F HX 104
ATLANTA GA     MOSUNNY   91  68  46 SW10      30.02F HX  95
NEW ORLEANS LA PTSUNNY   84  72  67 W8        30.02F
OKLAHOMA CITY  PTSUNNY   90  71  53 S6        29.91F HX  96
ALBUQUERQUE NM CLOUDY    93  50  23 W6        30.13F HX  90
SALT LAKE CITY MOSUNNY  100  30   8 N9        30.08F HX  94
LOS ANGELES CA MOSUNNY   79  65  62 W16       29.91F
BOISE ID       SUNNY     98  42  14 N8        29.97F HX  94
SEATTLE WA     MOSUNNY   79  60  52 NW12      30.12F
$$

*** WEATHER ACROSS MANITOBA...SASKATCHEWAN AND ONTARIO ***
                ***ONTARIO***

CITY           SKY/WX    TMP DP  RH WIND       PRES   REMARKS
GERALDTON      PTSUNNY   72  50  46 NW10      30.01F
THUNDER BAY    PTSUNNY   73  59  60 E7        30.02S
SIOUX LOOKOUT  MOSUNNY   68  52  56 N6        30.09F
TORONTO        PTSUNNY   90  63  40 W14G23    29.87S HX  90
BIG TROUT LK   NOT AVBL
PICKLE LAKE    MOSUNNY   68  46  45 NW7       30.09S
DRYDEN         MOSUNNY   70  54  56 NE12      30.09S
KENORA         MOSUNNY   72  54  53 N7        30.11R
$$
                *** MANITOBA***

CITY           SKY/WX    TMP DP  RH WIND       PRES   REMARKS
BRANDON        PTSUNNY   68  52  56 NE8       30.16F
DAUPHIN        SUNNY     72  52  49 N3        30.16S
ISLAND LAKE    MOSUNNY   68  48  49 VRB2      30.13F
PILOT MOUND      N/A     70  52  52 N9          N/A
THE PAS        MOSUNNY   79  52  38 SE10      30.11F
THOMPSON       PTSUNNY   75  46  35 VRB6      30.09F
WINNIPEG       PTSUNNY   72  55  56 NE10      30.13S
LYNN LAKE      PTSUNNY   75  55  50 MISG      30.04F
CHURCHILL      MOSUNNY   68  52  56 E9        30.06F
GILLAM         PTSUNNY   68  46  45 N3        30.11F
$$
                ***SASKATCHEWAN***

CITY           SKY/WX    TMP DP  RH WIND       PRES   REMARKS
ESTEVAN        PTSUNNY   73  57  56 E6        30.15R
KINDERSLEY     MOSUNNY   75  59  57 VRB2      30.16F
LLOYDMINSTER   PTSUNNY   81  55  41 W6        30.12F
PRINCE ALBERT  PTSUNNY   81  55  41 SW9       30.12F
REGINA         PTSUNNY   73  55  53 SE7       30.16S
YORKTON        SUNNY     73  48  40 NE6       30.17F   C1F1C2F2C3F3C4F4C5F5C6F6C7F7C8F8C9F9CaFaCbFbCcFcCdFdCe!



USA.gov is the U.S. government's official web portal to all federal, state and local government web resources and services.